Location: Newark
(34.6283°N, 36.0776°E)
Time: 22:41:10
(UTC+00:00)

Tiros 1 despin weight - Pass Details

Date: 25 September 2019
Orbit: 594 x 643 km, 48.2° (Epoch: 14 October)

Event Time Altitude Azimuth Distance (km) Brightness Sun altitude
Rises 13:48:08 0° 309° (NW) 2,853 ? 19.7°
Reaches altitude 10° 13:50:28 10° 313° (NW) 1,941 ? 19.2°
Maximum altitude 13:54:52 61° 34° (NE) 677 ? 18.3°
Drops below altitude 10° 13:59:13 10° 115° (ESE) 1,918 ? 17.5°
Sets 14:01:31 0° 119° (ESE) 2,815 ? 17.0°
